contact:dominique.lefevre@mio.osupytheas.fr, maurice.libes@osupytheas.fr, didier.mallarino@osupytheas.fr
Project:EMSO http://www.emso-fr.org/EMSO-France
Depth: 2436.0 m
Title:EMSO Ligure Ouest : Data MII capteur MICROCAT
DateTime_Computer,Latitude,Longitude,Temperature,Conductivity,Pressure,DateTime_Instrument
DateTime_Computer,Latitude,Longitude,degC,S m-1,dbar,DateTime_Instrument
2021-11-25T00:01:12Z,42.805,6.029,13.2999,4.60030,2470.413,2021-11-25T02:02:38Z
2021-11-25T00:04:15Z,42.805,6.029,13.2993,4.60025,2470.437,2021-11-25T02:05:41Z
2021-11-25T00:07:18Z,42.805,6.029,13.2993,4.60033,2470.437,2021-11-25T02:08:45Z
2021-11-25T00:10:21Z,42.805,6.029,13.2996,4.60028,2470.427,2021-11-25T02:11:48Z
2021-11-25T00:13:24Z,42.805,6.029,13.2996,4.60025,2470.413,2021-11-25T02:14:51Z
2021-11-25T00:16:27Z,42.805,6.029,13.2997,4.60026,2470.413,2021-11-25T02:17:54Z
2021-11-25T00:19:30Z,42.805,6.029,13.2994,4.60029,2470.404,2021-11-25T02:20:57Z
2021-11-25T00:22:33Z,42.805,6.029,13.2993,4.60024,2470.427,2021-11-25T02:24:00Z
2021-11-25T00:25:36Z,42.805,6.029,13.2993,4.60024,2470.413,2021-11-25T02:27:03Z
2021-11-25T00:28:40Z,42.805,6.029,13.2998,4.60028,2470.413,2021-11-25T02:30:06Z
2021-11-25T00:31:43Z,42.805,6.029,13.2996,4.60026,2470.404,2021-11-25T02:33:10Z
2021-11-25T00:34:46Z,42.805,6.029,13.2997,4.60026,2470.404,2021-11-25T02:36:13Z
2021-11-25T00:37:49Z,42.805,6.029,13.2999,4.60022,2470.437,2021-11-25T02:39:16Z
2021-11-25T00:40:52Z,42.805,6.029,13.2994,4.60021,2470.427,2021-11-25T02:42:19Z
2021-11-25T00:43:55Z,42.805,6.029,13.2993,4.60018,2470.427,2021-11-25T02:45:22Z
2021-11-25T00:46:58Z,42.805,6.029,13.2995,4.60017,2470.39,2021-11-25T02:48:25Z
2021-11-25T00:50:01Z,42.805,6.029,13.2994,4.60019,2470.404,2021-11-25T02:51:28Z
2021-11-25T00:53:05Z,42.805,6.029,13.2995,4.60023,2470.413,2021-11-25T02:54:31Z
2021-11-25T00:56:08Z,42.805,6.029,13.2992,4.60024,2470.404,2021-11-25T02:57:35Z
2021-11-25T00:59:11Z,42.805,6.029,13.2996,4.60029,2470.39,2021-11-25T03:00:38Z
2021-11-25T01:02:14Z,42.805,6.029,13.2996,4.60021,2470.404,2021-11-25T03:03:41Z
2021-11-25T01:05:17Z,42.805,6.029,13.2996,4.60021,2470.366,2021-11-25T03:06:44Z
2021-11-25T01:08:20Z,42.805,6.029,13.2996,4.60022,2470.366,2021-11-25T03:09:47Z
2021-11-25T01:11:23Z,42.805,6.029,13.2996,4.60020,2470.39,2021-11-25T03:12:50Z
2021-11-25T01:14:26Z,42.805,6.029,13.2994,4.60020,2470.38,2021-11-25T03:15:53Z
2021-11-25T01:17:30Z,42.805,6.029,13.2996,4.60019,2470.413,2021-11-25T03:18:56Z
2021-11-25T01:20:33Z,42.805,6.029,13.2993,4.60019,2470.39,2021-11-25T03:21:59Z
2021-11-25T01:23:36Z,42.805,6.029,13.2992,4.60020,2470.413,2021-11-25T03:25:03Z
2021-11-25T01:26:39Z,42.805,6.029,13.2992,4.60019,2470.366,2021-11-25T03:28:06Z
2021-11-25T01:29:42Z,42.805,6.029,13.2993,4.60018,2470.39,2021-11-25T03:31:09Z
2021-11-25T01:32:45Z,42.805,6.029,13.2994,4.60018,2470.404,2021-11-25T03:34:12Z
2021-11-25T01:35:48Z,42.805,6.029,13.2996,4.60019,2470.413,2021-11-25T03:37:15Z
2021-11-25T01:38:51Z,42.805,6.029,13.2995,4.60020,2470.38,2021-11-25T03:40:18Z
2021-11-25T01:41:55Z,42.805,6.029,13.2998,4.60022,2470.366,2021-11-25T03:43:21Z
2021-11-25T01:44:58Z,42.805,6.029,13.2998,4.60024,2470.404,2021-11-25T03:46:24Z
2021-11-25T01:48:01Z,42.805,6.029,13.2992,4.60021,2470.366,2021-11-25T03:49:28Z
2021-11-25T01:51:04Z,42.805,6.029,13.2993,4.60024,2470.39,2021-11-25T03:52:31Z
2021-11-25T01:54:07Z,42.805,6.029,13.2994,4.60026,2470.366,2021-11-25T03:55:34Z
2021-11-25T01:57:10Z,42.805,6.029,13.2992,4.60022,2470.39,2021-11-25T03:58:37Z
2021-11-25T02:00:13Z,42.805,6.029,13.2996,4.60020,2470.38,2021-11-25T04:01:40Z
2021-11-25T02:03:16Z,42.805,6.029,13.2997,4.60021,2470.404,2021-11-25T04:04:43Z
2021-11-25T02:06:20Z,42.805,6.029,13.2997,4.60024,2470.366,2021-11-25T04:07:46Z
2021-11-25T02:09:23Z,42.805,6.029,13.2996,4.60019,2470.404,2021-11-25T04:10:49Z
2021-11-25T02:12:26Z,42.805,6.029,13.2996,4.60022,2470.404,2021-11-25T04:13:53Z
2021-11-25T02:15:29Z,42.805,6.029,13.2993,4.60019,2470.38,2021-11-25T04:16:56Z
2021-11-25T02:18:32Z,42.805,6.029,13.2991,4.60026,2470.38,2021-11-25T04:19:59Z
2021-11-25T02:21:35Z,42.805,6.029,13.2993,4.60017,2470.366,2021-11-25T04:23:02Z
2021-11-25T02:24:38Z,42.805,6.029,13.2993,4.60017,2470.366,2021-11-25T04:26:05Z
2021-11-25T02:27:41Z,42.805,6.029,13.2993,4.60017,2470.404,2021-11-25T04:29:08Z
2021-11-25T02:30:45Z,42.805,6.029,13.2993,4.60019,2470.357,2021-11-25T04:32:11Z
2021-11-25T02:33:48Z,42.805,6.029,13.2994,4.60025,2470.39,2021-11-25T04:35:14Z
2021-11-25T02:36:51Z,42.805,6.029,13.2996,4.60020,2470.39,2021-11-25T04:38:18Z
2021-11-25T02:39:54Z,42.805,6.029,13.2991,4.60019,2470.353,2021-11-25T04:41:21Z
2021-11-25T02:42:57Z,42.805,6.029,13.2996,4.60019,2470.366,2021-11-25T04:44:24Z
2021-11-25T02:46:00Z,42.805,6.029,13.2995,4.60021,2470.366,2021-11-25T04:47:27Z
2021-11-25T02:49:03Z,42.805,6.029,13.2998,4.60026,2470.343,2021-11-25T04:50:30Z
2021-11-25T02:52:06Z,42.805,6.029,13.2995,4.60027,2470.366,2021-11-25T04:53:33Z
2021-11-25T02:55:10Z,42.805,6.029,13.2993,4.60020,2470.343,2021-11-25T04:56:36Z
2021-11-25T02:58:13Z,42.805,6.029,13.2993,4.60025,2470.357,2021-11-25T04:59:39Z
2021-11-25T03:01:16Z,42.805,6.029,13.2994,4.60021,2470.343,2021-11-25T05:02:43Z
2021-11-25T03:04:19Z,42.805,6.029,13.2990,4.60025,2470.366,2021-11-25T05:05:46Z
2021-11-25T03:07:22Z,42.805,6.029,13.2994,4.60026,2470.357,2021-11-25T05:08:49Z
2021-11-25T03:10:25Z,42.805,6.029,13.2993,4.60024,2470.38,2021-11-25T05:11:52Z
2021-11-25T03:13:28Z,42.805,6.029,13.2993,4.60028,2470.32,2021-11-25T05:14:55Z
2021-11-25T03:16:31Z,42.805,6.029,13.2993,4.60026,2470.343,2021-11-25T05:17:58Z
2021-11-25T03:19:35Z,42.805,6.029,13.2997,4.60027,2470.343,2021-11-25T05:21:01Z
2021-11-25T03:22:38Z,42.805,6.029,13.2994,4.60034,2470.366,2021-11-25T05:24:04Z
2021-11-25T03:25:41Z,42.805,6.029,13.2994,4.60029,2470.39,2021-11-25T05:27:08Z
2021-11-25T03:28:44Z,42.805,6.029,13.2994,4.60029,2470.38,2021-11-25T05:30:11Z
2021-11-25T03:31:47Z,42.805,6.029,13.2991,4.60026,2470.39,2021-11-25T05:33:14Z
2021-11-25T03:34:50Z,42.805,6.029,13.2993,4.60029,2470.334,2021-11-25T05:36:17Z
2021-11-25T03:37:53Z,42.805,6.029,13.2993,4.60021,2470.343,2021-11-25T05:39:20Z
2021-11-25T03:40:56Z,42.805,6.029,13.2993,4.60028,2470.366,2021-11-25T05:42:23Z
2021-11-25T03:43:59Z,42.805,6.029,13.2996,4.60025,2470.404,2021-11-25T05:45:26Z
2021-11-25T03:47:03Z,42.805,6.029,13.2996,4.60026,2470.357,2021-11-25T05:48:29Z
2021-11-25T03:50:06Z,42.805,6.029,13.2992,4.60027,2470.357,2021-11-25T05:51:33Z
2021-11-25T03:53:09Z,42.805,6.029,13.2993,4.60032,2470.366,2021-11-25T05:54:36Z
2021-11-25T03:56:12Z,42.805,6.029,13.2995,4.60022,2470.343,2021-11-25T05:57:39Z
2021-11-25T03:59:15Z,42.805,6.029,13.2995,4.60024,2470.343,2021-11-25T06:00:42Z
2021-11-25T04:02:18Z,42.805,6.029,13.2996,4.60026,2470.334,2021-11-25T06:03:45Z
2021-11-25T04:05:21Z,42.805,6.029,13.2998,4.60025,2470.32,2021-11-25T06:06:48Z
2021-11-25T04:08:24Z,42.805,6.029,13.2991,4.60027,2470.38,2021-11-25T06:09:51Z
2021-11-25T04:11:28Z,42.805,6.029,13.2996,4.60020,2470.38,2021-11-25T06:12:54Z
2021-11-25T04:14:31Z,42.805,6.029,13.2999,4.60021,2470.404,2021-11-25T06:15:58Z
2021-11-25T04:17:34Z,42.805,6.029,13.2996,4.60020,2470.366,2021-11-25T06:19:01Z
2021-11-25T04:20:37Z,42.805,6.029,13.2995,4.60019,2470.366,2021-11-25T06:22:04Z
2021-11-25T04:23:40Z,42.805,6.029,13.2996,4.60024,2470.343,2021-11-25T06:25:07Z
2021-11-25T04:26:43Z,42.805,6.029,13.2995,4.60023,2470.38,2021-11-25T06:28:10Z
2021-11-25T04:29:46Z,42.805,6.029,13.2996,4.60022,2470.343,2021-11-25T06:31:13Z
2021-11-25T04:32:49Z,42.805,6.029,13.2994,4.60021,2470.357,2021-11-25T06:34:16Z
2021-11-25T04:35:53Z,42.805,6.029,13.2993,4.60026,2470.394,2021-11-25T06:37:19Z
2021-11-25T04:38:56Z,42.805,6.029,13.2994,4.60022,2470.366,2021-11-25T06:40:23Z
2021-11-25T04:41:59Z,42.805,6.029,13.2991,4.60027,2470.366,2021-11-25T06:43:26Z
2021-11-25T04:45:02Z,42.805,6.029,13.2996,4.60024,2470.357,2021-11-25T06:46:29Z
2021-11-25T04:48:05Z,42.805,6.029,13.2992,4.60024,2470.39,2021-11-25T06:49:32Z
2021-11-25T04:51:08Z,42.805,6.029,13.2993,4.60025,2470.343,2021-11-25T06:52:35Z
2021-11-25T04:54:11Z,42.805,6.029,13.2992,4.60025,2470.38,2021-11-25T06:55:38Z
2021-11-25T04:57:14Z,42.805,6.029,13.2998,4.60021,2470.32,2021-11-25T06:58:41Z
2021-11-25T05:00:18Z,42.805,6.029,13.2995,4.60021,2470.357,2021-11-25T07:01:44Z
2021-11-25T05:03:21Z,42.805,6.029,13.2995,4.60026,2470.366,2021-11-25T07:04:48Z
2021-11-25T05:06:24Z,42.805,6.029,13.2995,4.60024,2470.357,2021-11-25T07:07:51Z
2021-11-25T05:09:27Z,42.805,6.029,13.2998,4.60024,2470.357,2021-11-25T07:10:54Z
2021-11-25T05:12:30Z,42.805,6.029,13.2993,4.60020,2470.39,2021-11-25T07:13:57Z
2021-11-25T05:15:33Z,42.805,6.029,13.2995,4.60022,2470.357,2021-11-25T07:17:00Z
2021-11-25T05:18:36Z,42.805,6.029,13.2993,4.60026,2470.366,2021-11-25T07:20:03Z
2021-11-25T05:21:39Z,42.805,6.029,13.2994,4.60029,2470.404,2021-11-25T07:23:06Z
2021-11-25T05:24:43Z,42.805,6.029,13.2995,4.60026,2470.38,2021-11-25T07:26:09Z
2021-11-25T05:27:46Z,42.805,6.029,13.2997,4.60025,2470.366,2021-11-25T07:29:12Z
2021-11-25T05:30:49Z,42.805,6.029,13.2995,4.60024,2470.427,2021-11-25T07:32:16Z
2021-11-25T05:33:52Z,42.805,6.029,13.2994,4.60025,2470.39,2021-11-25T07:35:19Z
2021-11-25T05:36:55Z,42.805,6.029,13.2996,4.60030,2470.343,2021-11-25T07:38:22Z
2021-11-25T05:39:58Z,42.805,6.029,13.2996,4.60029,2470.404,2021-11-25T07:41:25Z
2021-11-25T05:43:01Z,42.805,6.029,13.2998,4.60029,2470.366,2021-11-25T07:44:28Z
2021-11-25T05:46:04Z,42.805,6.029,13.2994,4.60023,2470.38,2021-11-25T07:47:31Z
2021-11-25T05:49:08Z,42.805,6.029,13.2996,4.60024,2470.404,2021-11-25T07:50:34Z
2021-11-25T05:52:11Z,42.805,6.029,13.2998,4.60024,2470.404,2021-11-25T07:53:38Z
2021-11-25T05:55:14Z,42.805,6.029,13.2996,4.60025,2470.366,2021-11-25T07:56:41Z
2021-11-25T05:58:17Z,42.805,6.029,13.2998,4.60022,2470.366,2021-11-25T07:59:44Z
2021-11-25T06:01:20Z,42.805,6.029,13.2993,4.60023,2470.404,2021-11-25T08:02:47Z
2021-11-25T06:04:23Z,42.805,6.029,13.2996,4.60026,2470.38,2021-11-25T08:05:50Z
2021-11-25T06:07:26Z,42.805,6.029,13.2991,4.60021,2470.366,2021-11-25T08:08:53Z
2021-11-25T06:10:29Z,42.805,6.029,13.2993,4.60021,2470.404,2021-11-25T08:11:56Z
2021-11-25T06:13:33Z,42.805,6.029,13.2995,4.60021,2470.39,2021-11-25T08:14:59Z
2021-11-25T06:16:36Z,42.805,6.029,13.2994,4.60020,2470.366,2021-11-25T08:18:02Z
2021-11-25T06:19:39Z,42.805,6.029,13.2996,4.60021,2470.404,2021-11-25T08:21:06Z
2021-11-25T06:22:42Z,42.805,6.029,13.2996,4.60021,2470.39,2021-11-25T08:24:09Z
2021-11-25T06:25:45Z,42.805,6.029,13.2993,4.60021,2470.39,2021-11-25T08:27:12Z
2021-11-25T06:28:48Z,42.805,6.029,13.2993,4.60021,2470.404,2021-11-25T08:30:15Z
2021-11-25T06:31:51Z,42.805,6.029,13.2994,4.60025,2470.427,2021-11-25T08:33:18Z
2021-11-25T06:34:54Z,42.805,6.029,13.2994,4.60019,2470.38,2021-11-25T08:36:21Z
2021-11-25T06:37:58Z,42.805,6.029,13.2996,4.60019,2470.413,2021-11-25T08:39:24Z
2021-11-25T06:41:01Z,42.805,6.029,13.2994,4.60019,2470.39,2021-11-25T08:42:27Z
2021-11-25T06:44:04Z,42.805,6.029,13.2993,4.60017,2470.404,2021-11-25T08:45:31Z
2021-11-25T06:47:07Z,42.805,6.029,13.2996,4.60021,2470.413,2021-11-25T08:48:34Z
2021-11-25T06:50:10Z,42.805,6.029,13.2996,4.60021,2470.39,2021-11-25T08:51:37Z
2021-11-25T06:53:13Z,42.805,6.029,13.2991,4.60018,2470.39,2021-11-25T08:54:40Z
2021-11-25T06:56:16Z,42.805,6.029,13.2995,4.60017,2470.404,2021-11-25T08:57:43Z
2021-11-25T06:59:19Z,42.805,6.029,13.2999,4.60018,2470.427,2021-11-25T09:00:46Z
2021-11-25T07:02:22Z,42.805,6.029,13.2996,4.60017,2470.404,2021-11-25T09:03:49Z
2021-11-25T07:05:26Z,42.805,6.029,13.2995,4.60019,2470.427,2021-11-25T09:06:52Z
2021-11-25T07:08:29Z,42.805,6.029,13.2998,4.60021,2470.45,2021-11-25T09:09:56Z
2021-11-25T07:11:32Z,42.805,6.029,13.2994,4.60022,2470.427,2021-11-25T09:12:59Z
2021-11-25T07:14:35Z,42.805,6.029,13.2993,4.60016,2470.413,2021-11-25T09:16:02Z
2021-11-25T07:17:38Z,42.805,6.029,13.2995,4.60018,2470.45,2021-11-25T09:19:05Z
2021-11-25T07:20:41Z,42.805,6.029,13.2995,4.60019,2470.39,2021-11-25T09:22:08Z
2021-11-25T07:23:44Z,42.805,6.029,13.2996,4.60016,2470.413,2021-11-25T09:25:11Z
2021-11-25T07:26:48Z,42.805,6.029,13.2993,4.60017,2470.39,2021-11-25T09:28:14Z
2021-11-25T07:29:51Z,42.805,6.029,13.2991,4.60016,2470.437,2021-11-25T09:31:17Z
2021-11-25T07:32:54Z,42.805,6.029,13.2998,4.60017,2470.474,2021-11-25T09:34:21Z
2021-11-25T07:35:57Z,42.805,6.029,13.2991,4.60016,2470.483,2021-11-25T09:37:24Z
2021-11-25T07:39:00Z,42.805,6.029,13.2993,4.60019,2470.46,2021-11-25T09:40:27Z
2021-11-25T07:42:03Z,42.805,6.029,13.2992,4.60016,2470.46,2021-11-25T09:43:30Z
2021-11-25T07:45:06Z,42.805,6.029,13.2996,4.60016,2470.446,2021-11-25T09:46:33Z
2021-11-25T07:48:09Z,42.805,6.029,13.2998,4.60016,2470.497,2021-11-25T09:49:36Z
2021-11-25T07:51:12Z,42.805,6.029,13.2996,4.60019,2470.46,2021-11-25T09:52:39Z
2021-11-25T07:54:16Z,42.805,6.029,13.2993,4.60019,2470.437,2021-11-25T09:55:42Z
2021-11-25T07:57:19Z,42.805,6.029,13.2994,4.60019,2470.474,2021-11-25T09:58:46Z
2021-11-25T08:00:22Z,42.805,6.029,13.2995,4.60019,2470.46,2021-11-25T10:01:49Z
2021-11-25T08:03:25Z,42.805,6.029,13.2991,4.60016,2470.46,2021-11-25T10:04:52Z
2021-11-25T08:06:28Z,42.805,6.029,13.2998,4.60018,2470.497,2021-11-25T10:07:55Z
2021-11-25T08:09:31Z,42.805,6.029,13.2994,4.60022,2470.46,2021-11-25T10:10:58Z
2021-11-25T08:12:34Z,42.805,6.029,13.2996,4.60021,2470.507,2021-11-25T10:14:01Z
2021-11-25T08:15:37Z,42.805,6.029,13.2996,4.60019,2470.507,2021-11-25T10:17:04Z
2021-11-25T08:18:41Z,42.805,6.029,13.2998,4.60021,2470.507,2021-11-25T10:20:07Z
2021-11-25T08:21:44Z,42.805,6.029,13.2996,4.60019,2470.483,2021-11-25T10:23:11Z
2021-11-25T08:24:47Z,42.805,6.029,13.2994,4.60021,2470.507,2021-11-25T10:26:14Z
2021-11-25T08:27:50Z,42.805,6.029,13.2997,4.60022,2470.497,2021-11-25T10:29:17Z
2021-11-25T08:30:53Z,42.805,6.029,13.2995,4.60022,2470.507,2021-11-25T10:32:20Z
2021-11-25T08:33:56Z,42.805,6.029,13.2996,4.60019,2470.52,2021-11-25T10:35:23Z
2021-11-25T08:36:59Z,42.805,6.029,13.2994,4.60020,2470.507,2021-11-25T10:38:26Z
2021-11-25T08:40:03Z,42.805,6.029,13.2998,4.60021,2470.52,2021-11-25T10:41:29Z
2021-11-25T08:43:06Z,42.805,6.029,13.2995,4.60019,2470.483,2021-11-25T10:44:32Z
2021-11-25T08:46:09Z,42.805,6.029,13.2996,4.60021,2470.497,2021-11-25T10:47:36Z
2021-11-25T08:49:12Z,42.805,6.029,13.2998,4.60022,2470.507,2021-11-25T10:50:39Z
2021-11-25T08:52:15Z,42.805,6.029,13.2992,4.60021,2470.516,2021-11-25T10:53:42Z
2021-11-25T08:55:18Z,42.805,6.029,13.2994,4.60018,2470.507,2021-11-25T10:56:45Z
2021-11-25T08:58:21Z,42.805,6.029,13.2994,4.60019,2470.507,2021-11-25T10:59:48Z
2021-11-25T09:01:24Z,42.805,6.029,13.2994,4.60019,2470.507,2021-11-25T11:02:51Z
2021-11-25T09:04:28Z,42.805,6.029,13.3000,4.60020,2470.52,2021-11-25T11:05:54Z
2021-11-25T09:07:31Z,42.805,6.029,13.2995,4.60022,2470.53,2021-11-25T11:08:57Z
2021-11-25T09:10:34Z,42.805,6.029,13.2998,4.60019,2470.553,2021-11-25T11:12:01Z
2021-11-25T09:13:37Z,42.805,6.029,13.2994,4.60021,2470.507,2021-11-25T11:15:04Z
2021-11-25T09:16:40Z,42.805,6.029,13.2993,4.60021,2470.52,2021-11-25T11:18:07Z
2021-11-25T09:19:43Z,42.805,6.029,13.2998,4.60020,2470.47,2021-11-25T11:21:10Z
2021-11-25T09:22:46Z,42.805,6.029,13.2998,4.60019,2470.53,2021-11-25T11:24:13Z
2021-11-25T09:25:49Z,42.805,6.029,13.2993,4.60018,2470.53,2021-11-25T11:27:16Z
2021-11-25T09:28:53Z,42.805,6.029,13.2996,4.60019,2470.53,2021-11-25T11:30:19Z
2021-11-25T09:31:56Z,42.805,6.029,13.2993,4.60017,2470.53,2021-11-25T11:33:23Z
2021-11-25T09:34:59Z,42.805,6.029,13.2995,4.60017,2470.53,2021-11-25T11:36:26Z
2021-11-25T09:38:02Z,42.805,6.029,13.2991,4.60018,2470.577,2021-11-25T11:39:29Z
2021-11-25T09:41:05Z,42.805,6.029,13.2992,4.60018,2470.53,2021-11-25T11:42:32Z
2021-11-25T09:44:08Z,42.805,6.029,13.2993,4.60019,2470.483,2021-11-25T11:45:35Z
2021-11-25T09:47:11Z,42.805,6.029,13.2996,4.60019,2470.567,2021-11-25T11:48:38Z
2021-11-25T09:50:14Z,42.805,6.029,13.2997,4.60019,2470.553,2021-11-25T11:51:41Z
2021-11-25T09:53:18Z,42.805,6.029,13.2993,4.60021,2470.544,2021-11-25T11:54:44Z
2021-11-25T09:56:21Z,42.805,6.029,13.2993,4.60021,2470.53,2021-11-25T11:57:48Z
2021-11-25T09:59:24Z,42.805,6.029,13.2997,4.60024,2470.544,2021-11-25T12:00:51Z
2021-11-25T10:02:27Z,42.805,6.029,13.2994,4.60026,2470.553,2021-11-25T12:03:54Z
2021-11-25T10:05:30Z,42.805,6.029,13.2996,4.60021,2470.53,2021-11-25T12:06:57Z
2021-11-25T10:08:33Z,42.805,6.029,13.2996,4.60019,2470.577,2021-11-25T12:10:00Z
2021-11-25T10:11:36Z,42.805,6.029,13.2999,4.60021,2470.53,2021-11-25T12:13:03Z
2021-11-25T10:14:39Z,42.805,6.029,13.2991,4.60021,2470.544,2021-11-25T12:16:06Z
2021-11-25T10:17:43Z,42.805,6.029,13.2996,4.60018,2470.53,2021-11-25T12:19:09Z
2021-11-25T10:20:46Z,42.805,6.029,13.2991,4.60018,2470.507,2021-11-25T12:22:13Z
2021-11-25T10:23:49Z,42.805,6.029,13.2998,4.60018,2470.544,2021-11-25T12:25:16Z
2021-11-25T10:26:52Z,42.805,6.029,13.2996,4.60020,2470.567,2021-11-25T12:28:19Z
2021-11-25T10:29:55Z,42.805,6.029,13.2996,4.60020,2470.544,2021-11-25T12:31:22Z
2021-11-25T10:32:58Z,42.805,6.029,13.2992,4.60016,2470.53,2021-11-25T12:34:25Z
2021-11-25T10:36:01Z,42.805,6.029,13.2992,4.60016,2470.53,2021-11-25T12:37:28Z
2021-11-25T10:39:05Z,42.805,6.029,13.2993,4.60018,2470.553,2021-11-25T12:40:31Z
2021-11-25T10:42:08Z,42.805,6.029,13.2990,4.60017,2470.544,2021-11-25T12:43:34Z
2021-11-25T10:45:11Z,42.805,6.029,13.2996,4.60019,2470.567,2021-11-25T12:46:38Z
2021-11-25T10:48:14Z,42.805,6.029,13.2996,4.60019,2470.567,2021-11-25T12:49:41Z
2021-11-25T10:51:17Z,42.805,6.029,13.2994,4.60018,2470.553,2021-11-25T12:52:44Z
2021-11-25T10:54:20Z,42.805,6.029,13.2994,4.60019,2470.553,2021-11-25T12:55:47Z
2021-11-25T10:57:23Z,42.805,6.029,13.2993,4.60019,2470.53,2021-11-25T12:58:50Z
2021-11-25T11:00:26Z,42.805,6.029,13.2993,4.60017,2470.553,2021-11-25T13:01:53Z
2021-11-25T11:03:30Z,42.805,6.029,13.2995,4.60017,2470.544,2021-11-25T13:04:56Z
2021-11-25T11:06:33Z,42.805,6.029,13.2998,4.60019,2470.53,2021-11-25T13:07:59Z
2021-11-25T11:09:36Z,42.805,6.029,13.2993,4.60019,2470.553,2021-11-25T13:11:03Z
2021-11-25T11:12:39Z,42.805,6.029,13.2991,4.60019,2470.567,2021-11-25T13:14:06Z
2021-11-25T11:15:42Z,42.805,6.029,13.2991,4.60019,2470.553,2021-11-25T13:17:09Z
2021-11-25T11:18:45Z,42.805,6.029,13.2991,4.60019,2470.544,2021-11-25T13:20:12Z
2021-11-25T11:21:48Z,42.805,6.029,13.2994,4.60018,2470.53,2021-11-25T13:23:15Z
2021-11-25T11:24:51Z,42.805,6.029,13.2996,4.60017,2470.53,2021-11-25T13:26:18Z
2021-11-25T11:27:55Z,42.805,6.029,13.2995,4.60017,2470.507,2021-11-25T13:29:21Z
2021-11-25T11:30:58Z,42.805,6.029,13.2991,4.60017,2470.53,2021-11-25T13:32:25Z
2021-11-25T11:34:01Z,42.805,6.029,13.2995,4.60019,2470.544,2021-11-25T13:35:28Z
2021-11-25T11:37:04Z,42.805,6.029,13.2996,4.60019,2470.52,2021-11-25T13:38:31Z
2021-11-25T11:40:07Z,42.805,6.029,13.2993,4.60017,2470.553,2021-11-25T13:41:34Z
2021-11-25T11:43:10Z,42.805,6.029,13.2997,4.60016,2470.544,2021-11-25T13:44:37Z
2021-11-25T11:46:13Z,42.805,6.029,13.2996,4.60019,2470.53,2021-11-25T13:47:40Z
2021-11-25T11:49:16Z,42.805,6.029,13.2994,4.60019,2470.507,2021-11-25T13:50:43Z
2021-11-25T11:52:20Z,42.805,6.029,13.2996,4.60019,2470.544,2021-11-25T13:53:46Z
2021-11-25T11:55:23Z,42.805,6.029,13.2996,4.60018,2470.52,2021-11-25T13:56:50Z
2021-11-25T11:58:26Z,42.805,6.029,13.2994,4.60021,2470.544,2021-11-25T13:59:53Z
2021-11-25T12:01:29Z,42.805,6.029,13.2995,4.60019,2470.544,2021-11-25T14:02:56Z
2021-11-25T12:04:32Z,42.805,6.029,13.2996,4.60019,2470.553,2021-11-25T14:05:59Z
2021-11-25T12:07:35Z,42.805,6.029,13.2994,4.60018,2470.507,2021-11-25T14:09:02Z
2021-11-25T12:10:38Z,42.805,6.029,13.2997,4.60019,2470.544,2021-11-25T14:12:05Z
2021-11-25T12:13:41Z,42.805,6.029,13.2998,4.60021,2470.544,2021-11-25T14:15:08Z
2021-11-25T12:16:45Z,42.805,6.029,13.2995,4.60019,2470.507,2021-11-25T14:18:11Z
2021-11-25T12:19:48Z,42.805,6.029,13.2996,4.60019,2470.507,2021-11-25T14:21:15Z
2021-11-25T12:22:51Z,42.805,6.029,13.2996,4.60019,2470.567,2021-11-25T14:24:18Z
2021-11-25T12:25:54Z,42.805,6.029,13.2993,4.60021,2470.53,2021-11-25T14:27:21Z
2021-11-25T12:28:57Z,42.805,6.029,13.2992,4.60016,2470.544,2021-11-25T14:30:24Z
2021-11-25T12:32:00Z,42.805,6.029,13.2996,4.60019,2470.483,2021-11-25T14:33:27Z
2021-11-25T12:35:03Z,42.805,6.029,13.2997,4.60019,2470.544,2021-11-25T14:36:30Z
2021-11-25T12:38:07Z,42.805,6.029,13.2994,4.60017,2470.567,2021-11-25T14:39:33Z
2021-11-25T12:41:10Z,42.805,6.029,13.2998,4.60022,2470.507,2021-11-25T14:42:37Z
2021-11-25T12:44:13Z,42.805,6.029,13.2997,4.60016,2470.53,2021-11-25T14:45:40Z
2021-11-25T12:47:16Z,42.805,6.029,13.2992,4.60019,2470.544,2021-11-25T14:48:43Z
2021-11-25T12:50:19Z,42.805,6.029,13.2998,4.60019,2470.53,2021-11-25T14:51:46Z
2021-11-25T12:53:22Z,42.805,6.029,13.2992,4.60021,2470.507,2021-11-25T14:54:49Z
2021-11-25T12:56:25Z,42.805,6.029,13.2996,4.60019,2470.507,2021-11-25T14:57:52Z
2021-11-25T12:59:28Z,42.805,6.029,13.2993,4.60019,2470.507,2021-11-25T15:00:55Z
2021-11-25T13:02:32Z,42.805,6.029,13.2994,4.60016,2470.507,2021-11-25T15:03:58Z
2021-11-25T13:05:35Z,42.805,6.029,13.2991,4.60019,2470.507,2021-11-25T15:07:02Z
2021-11-25T13:08:38Z,42.805,6.029,13.2995,4.60020,2470.507,2021-11-25T15:10:05Z
2021-11-25T13:11:41Z,42.805,6.029,13.2990,4.60019,2470.52,2021-11-25T15:13:08Z
2021-11-25T13:14:44Z,42.805,6.029,13.2996,4.60020,2470.507,2021-11-25T15:16:11Z
2021-11-25T13:17:47Z,42.805,6.029,13.2993,4.60019,2470.52,2021-11-25T15:19:14Z
2021-11-25T13:20:50Z,42.805,6.029,13.2996,4.60016,2470.507,2021-11-25T15:22:17Z
2021-11-25T13:23:53Z,42.805,6.029,13.2995,4.60019,2470.52,2021-11-25T15:25:20Z
2021-11-25T13:26:57Z,42.805,6.029,13.2996,4.60017,2470.507,2021-11-25T15:28:23Z
2021-11-25T13:30:00Z,42.805,6.029,13.2991,4.60016,2470.52,2021-11-25T15:31:27Z
2021-11-25T13:33:03Z,42.805,6.029,13.2999,4.60018,2470.507,2021-11-25T15:34:30Z
2021-11-25T13:36:06Z,42.805,6.029,13.3002,4.60017,2470.53,2021-11-25T15:37:33Z
2021-11-25T13:39:09Z,42.805,6.029,13.2996,4.60016,2470.483,2021-11-25T15:40:36Z
2021-11-25T13:42:12Z,42.805,6.029,13.2994,4.60016,2470.474,2021-11-25T15:43:39Z
2021-11-25T13:45:15Z,42.805,6.029,13.2999,4.60016,2470.544,2021-11-25T15:46:42Z
2021-11-25T13:48:18Z,42.805,6.029,13.2994,4.60017,2470.507,2021-11-25T15:49:45Z
2021-11-25T13:51:22Z,42.805,6.029,13.2993,4.60017,2470.52,2021-11-25T15:52:48Z
2021-11-25T13:54:25Z,42.805,6.029,13.2999,4.60016,2470.474,2021-11-25T15:55:52Z
2021-11-25T13:57:28Z,42.805,6.029,13.2995,4.60016,2470.497,2021-11-25T15:58:55Z
2021-11-25T14:00:31Z,42.805,6.029,13.2994,4.60017,2470.507,2021-11-25T16:01:58Z
2021-11-25T14:03:34Z,42.805,6.029,13.2993,4.60016,2470.497,2021-11-25T16:05:01Z
2021-11-25T14:06:37Z,42.805,6.029,13.2996,4.60018,2470.483,2021-11-25T16:08:04Z
2021-11-25T14:09:40Z,42.805,6.029,13.2990,4.60016,2470.507,2021-11-25T16:11:07Z
2021-11-25T14:12:43Z,42.805,6.029,13.2998,4.60017,2470.497,2021-11-25T16:14:10Z
2021-11-25T14:15:47Z,42.805,6.029,13.2991,4.60016,2470.46,2021-11-25T16:17:13Z
2021-11-25T14:18:50Z,42.805,6.029,13.2998,4.60016,2470.483,2021-11-25T16:20:17Z
2021-11-25T14:21:53Z,42.805,6.029,13.2996,4.60021,2470.507,2021-11-25T16:23:20Z
2021-11-25T14:24:56Z,42.805,6.029,13.2994,4.60017,2470.497,2021-11-25T16:26:23Z
2021-11-25T14:27:59Z,42.805,6.029,13.2998,4.60019,2470.497,2021-11-25T16:29:26Z
2021-11-25T14:31:02Z,42.805,6.029,13.2995,4.60019,2470.52,2021-11-25T16:32:29Z
2021-11-25T14:34:05Z,42.805,6.029,13.2994,4.60016,2470.483,2021-11-25T16:35:32Z
2021-11-25T14:37:08Z,42.805,6.029,13.2999,4.60017,2470.52,2021-11-25T16:38:35Z
2021-11-25T14:40:12Z,42.805,6.029,13.2998,4.60016,2470.497,2021-11-25T16:41:38Z
2021-11-25T14:43:15Z,42.805,6.029,13.2997,4.60019,2470.52,2021-11-25T16:44:42Z
2021-11-25T14:46:18Z,42.805,6.029,13.2998,4.60021,2470.497,2021-11-25T16:47:45Z
2021-11-25T14:49:21Z,42.805,6.029,13.2991,4.60019,2470.52,2021-11-25T16:50:48Z
2021-11-25T14:52:24Z,42.805,6.029,13.2995,4.60018,2470.483,2021-11-25T16:53:51Z
2021-11-25T14:55:27Z,42.805,6.029,13.2993,4.60019,2470.497,2021-11-25T16:56:54Z
2021-11-25T14:58:30Z,42.805,6.029,13.2998,4.60019,2470.46,2021-11-25T16:59:57Z
2021-11-25T15:01:34Z,42.805,6.029,13.2992,4.60015,2470.45,2021-11-25T17:03:00Z